Year,Month,Day,Hour,Minute,Value (Times are PST for temperature in C)
2018,04,26,00,00,8.20
2018,04,26,00,01,8.20
2018,04,26,00,02,8.10
2018,04,26,00,03,8.10
2018,04,26,00,04,8.10
2018,04,26,00,05,8.20
2018,04,26,00,06,8.20
2018,04,26,00,07,8.20
2018,04,26,00,08,8.20
2018,04,26,00,09,8.30
2018,04,26,00,10,8.30
2018,04,26,00,11,8.30
2018,04,26,00,12,8.30
2018,04,26,00,13,8.20
2018,04,26,00,14,8.20
2018,04,26,00,15,8.20
2018,04,26,00,16,8.10
2018,04,26,00,17,8.00
2018,04,26,00,18,7.90
2018,04,26,00,19,7.90
2018,04,26,00,20,7.80
2018,04,26,00,21,7.70
2018,04,26,00,22,7.70
2018,04,26,00,23,7.70
2018,04,26,00,24,7.70
2018,04,26,00,25,7.70
2018,04,26,00,26,7.70
2018,04,26,00,27,7.70
2018,04,26,00,28,7.70
2018,04,26,00,29,7.70
2018,04,26,00,30,7.70
2018,04,26,00,31,7.70
2018,04,26,00,32,7.70
2018,04,26,00,33,7.70
2018,04,26,00,34,7.70
2018,04,26,00,35,7.70
2018,04,26,00,36,7.70
2018,04,26,00,37,7.70
2018,04,26,00,38,7.70
2018,04,26,00,39,7.70
2018,04,26,00,40,7.70
2018,04,26,00,41,7.60
2018,04,26,00,42,7.60
2018,04,26,00,43,7.60
2018,04,26,00,44,7.60
2018,04,26,00,45,7.50
2018,04,26,00,46,7.50
2018,04,26,00,47,7.50
2018,04,26,00,48,7.50
2018,04,26,00,49,7.40
2018,04,26,00,50,7.40
2018,04,26,00,51,7.40
2018,04,26,00,52,7.40
2018,04,26,00,53,7.40
2018,04,26,00,54,7.40
2018,04,26,00,55,7.40
2018,04,26,00,56,7.40
2018,04,26,00,57,7.40
2018,04,26,00,58,7.30
2018,04,26,00,59,7.30
2018,04,26,01,00,7.30
2018,04,26,01,01,7.30
2018,04,26,01,02,7.30
2018,04,26,01,03,7.30
2018,04,26,01,04,7.30
2018,04,26,01,05,7.30
2018,04,26,01,06,7.30
2018,04,26,01,07,7.30
2018,04,26,01,08,7.30
2018,04,26,01,09,7.30
2018,04,26,01,10,7.30
2018,04,26,01,11,7.30
2018,04,26,01,12,7.30
2018,04,26,01,13,7.30
2018,04,26,01,14,7.30
2018,04,26,01,15,7.30
2018,04,26,01,16,7.30
2018,04,26,01,17,7.30
2018,04,26,01,18,7.30
2018,04,26,01,19,7.30
2018,04,26,01,20,7.30
2018,04,26,01,21,7.30
2018,04,26,01,22,7.30
2018,04,26,01,23,7.20
2018,04,26,01,24,7.20
2018,04,26,01,25,7.20
2018,04,26,01,26,7.20
2018,04,26,01,27,7.10
2018,04,26,01,28,7.10
2018,04,26,01,29,7.10
2018,04,26,01,30,7.00
2018,04,26,01,31,7.00
2018,04,26,01,32,6.90
2018,04,26,01,33,6.90
2018,04,26,01,34,6.90
2018,04,26,01,35,6.80
2018,04,26,01,36,6.80
2018,04,26,01,37,6.80
2018,04,26,01,38,6.80
2018,04,26,01,39,6.80
2018,04,26,01,40,6.80
2018,04,26,01,41,6.70
2018,04,26,01,42,6.70
2018,04,26,01,43,6.70
2018,04,26,01,44,6.70
2018,04,26,01,45,6.70
2018,04,26,01,46,6.60
2018,04,26,01,47,6.60
2018,04,26,01,48,6.60
2018,04,26,01,49,6.60
2018,04,26,01,50,6.60
2018,04,26,01,51,6.60
2018,04,26,01,52,6.50
2018,04,26,01,53,6.50
2018,04,26,01,54,6.50
2018,04,26,01,55,6.50
2018,04,26,01,56,6.40
2018,04,26,01,57,6.40
2018,04,26,01,58,6.40
2018,04,26,01,59,6.40
2018,04,26,02,00,6.40
2018,04,26,02,01,6.30
2018,04,26,02,02,6.30
2018,04,26,02,03,6.30
2018,04,26,02,04,6.30
2018,04,26,02,05,6.20
2018,04,26,02,06,6.20
2018,04,26,02,07,6.20
2018,04,26,02,08,6.20
2018,04,26,02,09,6.20
2018,04,26,02,10,6.20
2018,04,26,02,11,6.20
2018,04,26,02,12,6.20
2018,04,26,02,13,6.20
2018,04,26,02,14,6.20
2018,04,26,02,15,6.20
2018,04,26,02,16,6.20
2018,04,26,02,17,6.20
2018,04,26,02,18,6.20
2018,04,26,02,19,6.20
2018,04,26,02,20,6.20
2018,04,26,02,21,6.20
2018,04,26,02,22,6.20
2018,04,26,02,23,6.20
2018,04,26,02,24,6.20
2018,04,26,02,25,6.10
2018,04,26,02,26,6.10
2018,04,26,02,27,6.10
2018,04,26,02,28,6.10
2018,04,26,02,29,6.10
2018,04,26,02,30,6.10
2018,04,26,02,31,6.10
2018,04,26,02,32,6.10
2018,04,26,02,33,6.10
2018,04,26,02,34,6.10
2018,04,26,02,35,6.20
2018,04,26,02,36,6.20
2018,04,26,02,37,6.20
2018,04,26,02,38,6.20
2018,04,26,02,39,6.20
2018,04,26,02,40,6.10
2018,04,26,02,41,6.00
2018,04,26,02,42,6.00
2018,04,26,02,43,5.90
2018,04,26,02,44,5.90
2018,04,26,02,45,5.80
2018,04,26,02,46,5.80
2018,04,26,02,47,5.80
2018,04,26,02,48,5.80
2018,04,26,02,49,5.80
2018,04,26,02,50,5.80
2018,04,26,02,51,5.80
2018,04,26,02,52,5.70
2018,04,26,02,53,5.70
2018,04,26,02,54,5.70
2018,04,26,02,55,5.70
2018,04,26,02,56,5.70
2018,04,26,02,57,5.70
2018,04,26,02,58,5.70
2018,04,26,02,59,5.70
2018,04,26,03,00,5.70
2018,04,26,03,01,5.70
2018,04,26,03,02,5.60
2018,04,26,03,03,5.60
2018,04,26,03,04,5.60
2018,04,26,03,05,5.60
2018,04,26,03,06,5.60
2018,04,26,03,07,5.60
2018,04,26,03,08,5.60
2018,04,26,03,09,5.60
2018,04,26,03,10,5.60
2018,04,26,03,11,5.60
2018,04,26,03,12,5.60
2018,04,26,03,13,5.60
2018,04,26,03,14,5.60
2018,04,26,03,15,5.60
2018,04,26,03,16,5.60
2018,04,26,03,17,5.70
2018,04,26,03,18,5.70
2018,04,26,03,19,5.70
2018,04,26,03,20,5.70
2018,04,26,03,21,5.60
2018,04,26,03,22,5.60
2018,04,26,03,23,5.60
2018,04,26,03,24,5.60
2018,04,26,03,25,5.60
2018,04,26,03,26,5.60
2018,04,26,03,27,5.60
2018,04,26,03,28,5.60
2018,04,26,03,29,5.60
2018,04,26,03,30,5.60
2018,04,26,03,31,5.60
2018,04,26,03,32,5.50
2018,04,26,03,33,5.50
2018,04,26,03,34,5.40
2018,04,26,03,35,5.40
2018,04,26,03,36,5.30
2018,04,26,03,37,5.30
2018,04,26,03,38,5.20
2018,04,26,03,39,5.20
2018,04,26,03,40,5.20
2018,04,26,03,41,5.20
2018,04,26,03,42,5.20
2018,04,26,03,43,5.20
2018,04,26,03,44,5.10
2018,04,26,03,45,5.10
2018,04,26,03,46,5.10
2018,04,26,03,47,5.00
2018,04,26,03,48,5.00
2018,04,26,03,49,5.00
2018,04,26,03,50,4.90
2018,04,26,03,51,4.90
2018,04,26,03,52,4.90
2018,04,26,03,53,4.90
2018,04,26,03,54,4.90
2018,04,26,03,55,4.90
2018,04,26,03,56,4.90
2018,04,26,03,57,4.90
2018,04,26,03,58,4.90
2018,04,26,03,59,4.90
2018,04,26,04,00,4.90
2018,04,26,04,01,4.90
2018,04,26,04,02,4.90
2018,04,26,04,03,5.00
2018,04,26,04,04,5.00
2018,04,26,04,05,5.10
2018,04,26,04,06,5.10
2018,04,26,04,07,5.10
2018,04,26,04,08,5.10
2018,04,26,04,09,5.10
2018,04,26,04,10,5.10
2018,04,26,04,11,5.10
2018,04,26,04,12,5.10
2018,04,26,04,13,5.10
2018,04,26,04,14,5.00
2018,04,26,04,15,5.00
2018,04,26,04,16,5.00
2018,04,26,04,17,4.90
2018,04,26,04,18,4.90
2018,04,26,04,19,4.90
2018,04,26,04,20,4.90
2018,04,26,04,21,4.80
2018,04,26,04,22,4.80
2018,04,26,04,23,4.80
2018,04,26,04,24,4.80
2018,04,26,04,25,4.80
2018,04,26,04,26,4.80
2018,04,26,04,27,4.80
2018,04,26,04,28,4.80
2018,04,26,04,29,4.80
2018,04,26,04,30,4.80
2018,04,26,04,31,4.80
2018,04,26,04,32,4.80
2018,04,26,04,33,4.80
2018,04,26,04,34,4.80
2018,04,26,04,35,4.80
2018,04,26,04,36,4.80
2018,04,26,04,37,4.70
2018,04,26,04,38,4.70
2018,04,26,04,39,4.70
2018,04,26,04,40,4.70
2018,04,26,04,41,4.70
2018,04,26,04,42,4.70
2018,04,26,04,43,4.70
2018,04,26,04,44,4.70
2018,04,26,04,45,4.70
2018,04,26,04,46,4.70
2018,04,26,04,47,4.70
2018,04,26,04,48,4.70
2018,04,26,04,49,4.70
2018,04,26,04,50,4.70
2018,04,26,04,51,4.70
2018,04,26,04,52,4.60
2018,04,26,04,53,4.60
2018,04,26,04,54,4.60
2018,04,26,04,55,4.50
2018,04,26,04,56,4.50
2018,04,26,04,57,4.50
2018,04,26,04,58,4.40
2018,04,26,04,59,4.40
2018,04,26,05,00,4.40
2018,04,26,05,01,4.40
2018,04,26,05,02,4.40
2018,04,26,05,03,4.30
2018,04,26,05,04,4.30
2018,04,26,05,05,4.30
2018,04,26,05,06,4.30
2018,04,26,05,07,4.30
2018,04,26,05,08,4.30
2018,04,26,05,09,4.30
2018,04,26,05,10,4.30
2018,04,26,05,11,4.30
2018,04,26,05,12,4.30
2018,04,26,05,13,4.30
2018,04,26,05,14,4.30
2018,04,26,05,15,4.30
2018,04,26,05,16,4.30
2018,04,26,05,17,4.30
2018,04,26,05,18,4.30
2018,04,26,05,19,4.30
2018,04,26,05,20,4.30
2018,04,26,05,21,4.20
2018,04,26,05,22,4.20
2018,04,26,05,23,4.20
2018,04,26,05,24,4.20
2018,04,26,05,25,4.20
2018,04,26,05,26,4.20
2018,04,26,05,27,4.20
2018,04,26,05,28,4.20
2018,04,26,05,29,4.20
2018,04,26,05,30,4.10
2018,04,26,05,31,4.10
2018,04,26,05,32,4.10
2018,04,26,05,33,4.00
2018,04,26,05,34,4.00
2018,04,26,05,35,4.00
2018,04,26,05,36,3.90
2018,04,26,05,37,3.90
2018,04,26,05,38,3.90
2018,04,26,05,39,3.90
2018,04,26,05,40,3.90
2018,04,26,05,41,3.90
2018,04,26,05,42,3.90
2018,04,26,05,43,3.90
2018,04,26,05,44,3.90
2018,04,26,05,45,3.90
2018,04,26,05,46,3.90
2018,04,26,05,47,3.80
2018,04,26,05,48,3.80
2018,04,26,05,49,3.80
2018,04,26,05,50,3.80
2018,04,26,05,51,3.80
2018,04,26,05,52,3.80
2018,04,26,05,53,3.80
2018,04,26,05,54,3.80
2018,04,26,05,55,3.80
2018,04,26,05,56,3.80
2018,04,26,05,57,3.80
2018,04,26,05,58,3.80
2018,04,26,05,59,3.80
2018,04,26,06,00,3.80
2018,04,26,06,01,3.80
2018,04,26,06,02,3.80
2018,04,26,06,03,3.70
2018,04,26,06,04,3.70
2018,04,26,06,05,3.70
2018,04,26,06,06,3.70
2018,04,26,06,07,3.70
2018,04,26,06,08,3.60
2018,04,26,06,09,3.60
2018,04,26,06,10,3.60
2018,04,26,06,11,3.60
2018,04,26,06,12,3.60
2018,04,26,06,13,3.60
2018,04,26,06,14,3.50
2018,04,26,06,15,3.50
2018,04,26,06,16,3.40
2018,04,26,06,17,3.40
2018,04,26,06,18,3.40
2018,04,26,06,19,3.40
2018,04,26,06,20,3.40
2018,04,26,06,21,3.40
2018,04,26,06,22,3.40
2018,04,26,06,23,3.50
2018,04,26,06,24,3.50
2018,04,26,06,25,3.50
2018,04,26,06,26,3.50
2018,04,26,06,27,3.50
2018,04,26,06,28,3.50
2018,04,26,06,29,3.50
2018,04,26,06,30,3.50
2018,04,26,06,31,3.50
2018,04,26,06,32,3.50
2018,04,26,06,33,3.50
2018,04,26,06,34,3.60
2018,04,26,06,35,3.60
2018,04,26,06,36,3.60
2018,04,26,06,37,3.60
2018,04,26,06,38,3.60
2018,04,26,06,39,3.60
2018,04,26,06,40,3.60
2018,04,26,06,41,3.60
2018,04,26,06,42,3.60
2018,04,26,06,43,3.60
2018,04,26,06,44,3.60
2018,04,26,06,45,3.60
2018,04,26,06,46,3.60
2018,04,26,06,47,3.60
2018,04,26,06,48,3.70
2018,04,26,06,49,3.70
2018,04,26,06,50,3.70
2018,04,26,06,51,3.70
2018,04,26,06,52,3.70
2018,04,26,06,53,3.70
2018,04,26,06,54,3.70
2018,04,26,06,55,3.70
2018,04,26,06,56,3.70
2018,04,26,06,57,3.70
2018,04,26,06,58,3.70
2018,04,26,06,59,3.70
2018,04,26,07,00,3.70
2018,04,26,07,01,3.70
2018,04,26,07,02,3.70
2018,04,26,07,03,3.70
2018,04,26,07,04,3.70
2018,04,26,07,05,3.70
2018,04,26,07,06,3.70
2018,04,26,07,07,3.70
2018,04,26,07,08,3.80
2018,04,26,07,09,3.80
2018,04,26,07,10,3.80
2018,04,26,07,11,3.80
2018,04,26,07,12,3.80
2018,04,26,07,13,3.80
2018,04,26,07,14,3.90
2018,04,26,07,15,3.90
2018,04,26,07,16,3.90
2018,04,26,07,17,3.90
2018,04,26,07,18,4.00
2018,04,26,07,19,4.00
2018,04,26,07,20,4.00
2018,04,26,07,21,4.10
2018,04,26,07,22,4.10
2018,04,26,07,23,4.20
2018,04,26,07,24,4.20
2018,04,26,07,25,4.20
2018,04,26,07,26,4.30
2018,04,26,07,27,4.30
2018,04,26,07,28,4.30
2018,04,26,07,29,4.40
2018,04,26,07,30,4.40
2018,04,26,07,31,4.40
2018,04,26,07,32,4.40
2018,04,26,07,33,4.50
2018,04,26,07,34,4.50
2018,04,26,07,35,4.50
2018,04,26,07,36,4.50
2018,04,26,07,37,4.60
2018,04,26,07,38,4.60
2018,04,26,07,39,4.60
2018,04,26,07,40,4.70
2018,04,26,07,41,4.70
2018,04,26,07,42,4.70
2018,04,26,07,43,4.80
2018,04,26,07,44,4.80
2018,04,26,07,45,4.80
2018,04,26,07,46,4.90
2018,04,26,07,47,5.00
2018,04,26,07,48,5.10
2018,04,26,07,49,5.10
2018,04,26,07,50,5.20
2018,04,26,07,51,5.20
2018,04,26,07,52,5.30
2018,04,26,07,53,5.30
2018,04,26,07,54,5.30
2018,04,26,07,55,5.40
2018,04,26,07,56,5.50
2018,04,26,07,57,5.60
2018,04,26,07,58,5.70
2018,04,26,07,59,5.70
2018,04,26,08,00,5.80
2018,04,26,08,01,5.90
2018,04,26,08,02,6.00
2018,04,26,08,03,6.00
2018,04,26,08,04,6.10
2018,04,26,08,05,6.20
2018,04,26,08,06,6.30
2018,04,26,08,07,6.40
2018,04,26,08,08,6.50
2018,04,26,08,09,6.60
2018,04,26,08,10,6.80
2018,04,26,08,11,6.90
2018,04,26,08,12,7.00
2018,04,26,08,13,7.20
2018,04,26,08,14,7.40
2018,04,26,08,15,7.50
2018,04,26,08,16,7.70
2018,04,26,08,17,7.80
2018,04,26,08,18,7.90
2018,04,26,08,19,8.10
2018,04,26,08,20,8.20
2018,04,26,08,21,8.40
2018,04,26,08,22,8.50
2018,04,26,08,23,8.70
2018,04,26,08,24,8.90
2018,04,26,08,25,9.00
2018,04,26,08,26,9.20
2018,04,26,08,27,9.30
2018,04,26,08,28,9.40
2018,04,26,08,29,9.60
2018,04,26,08,30,9.70
2018,04,26,08,31,9.80
2018,04,26,08,32,9.80
2018,04,26,08,33,9.90
2018,04,26,08,34,10.00
2018,04,26,08,35,10.10
2018,04,26,08,36,10.20
2018,04,26,08,37,10.30
2018,04,26,08,38,10.30
2018,04,26,08,39,10.40
2018,04,26,08,40,10.50
2018,04,26,08,41,10.60
2018,04,26,08,42,10.70
2018,04,26,08,43,10.80
2018,04,26,08,44,10.90
2018,04,26,08,45,11.00
2018,04,26,08,46,11.20
2018,04,26,08,47,11.30
2018,04,26,08,48,11.40
2018,04,26,08,49,11.60
2018,04,26,08,50,11.70
2018,04,26,08,51,11.80
2018,04,26,08,52,11.90
2018,04,26,08,53,12.00
2018,04,26,08,54,12.00
2018,04,26,08,55,12.10
2018,04,26,08,56,12.20
2018,04,26,08,57,12.30
2018,04,26,08,58,12.40
2018,04,26,08,59,12.50
2018,04,26,09,00,12.60
2018,04,26,09,01,12.70
2018,04,26,09,02,12.80
2018,04,26,09,03,12.90
2018,04,26,09,04,13.00
2018,04,26,09,05,13.10
2018,04,26,09,06,13.20
2018,04,26,09,07,13.30
2018,04,26,09,08,13.40
2018,04,26,09,09,13.50
2018,04,26,09,10,13.50
2018,04,26,09,11,13.60
2018,04,26,09,12,13.70
2018,04,26,09,13,13.70
2018,04,26,09,14,13.80
2018,04,26,09,15,13.80
2018,04,26,09,16,13.90
2018,04,26,09,17,14.00
2018,04,26,09,18,14.00
2018,04,26,09,19,14.10
2018,04,26,09,20,14.20
2018,04,26,09,21,14.30
2018,04,26,09,22,14.40
2018,04,26,09,23,14.50
2018,04,26,09,24,14.60
2018,04,26,09,25,14.70
2018,04,26,09,26,14.80
2018,04,26,09,27,14.90
2018,04,26,09,28,15.00
2018,04,26,09,29,15.10
2018,04,26,09,30,15.10
2018,04,26,09,31,15.20
2018,04,26,09,32,15.20
2018,04,26,09,33,15.20
2018,04,26,09,34,15.30
2018,04,26,09,35,15.40
2018,04,26,09,36,15.50
2018,04,26,09,37,15.70
2018,04,26,09,38,15.80
2018,04,26,09,39,15.90
2018,04,26,09,40,16.10
2018,04,26,09,41,16.20
2018,04,26,09,42,16.30
2018,04,26,09,43,16.50
2018,04,26,09,44,16.60
2018,04,26,09,45,16.70
2018,04,26,09,46,16.80
2018,04,26,09,47,16.80
2018,04,26,09,48,16.90
2018,04,26,09,49,16.90
2018,04,26,09,50,16.90
2018,04,26,09,51,17.00
2018,04,26,09,52,17.10
2018,04,26,09,53,17.20
2018,04,26,09,54,17.30
2018,04,26,09,55,17.30
2018,04,26,09,56,17.30
2018,04,26,09,57,17.40
2018,04,26,09,58,17.40
2018,04,26,09,59,17.40
2018,04,26,10,00,17.40
2018,04,26,10,01,17.40
2018,04,26,10,02,17.50
2018,04,26,10,03,17.50
2018,04,26,10,04,17.40
2018,04,26,10,05,17.40
2018,04,26,10,06,17.40
2018,04,26,10,07,17.40
2018,04,26,10,08,17.40
2018,04,26,10,09,17.50
2018,04,26,10,10,17.60
2018,04,26,10,11,17.60
2018,04,26,10,12,17.60
2018,04,26,10,13,17.70
2018,04,26,10,14,17.70
2018,04,26,10,15,17.70
2018,04,26,10,16,17.70
2018,04,26,10,17,17.60
2018,04,26,10,18,17.60
2018,04,26,10,19,17.60
2018,04,26,10,20,17.70
2018,04,26,10,21,17.70
2018,04,26,10,22,17.70
2018,04,26,10,23,17.70
2018,04,26,10,24,17.70
2018,04,26,10,25,17.70
2018,04,26,10,26,17.70
2018,04,26,10,27,17.80
2018,04,26,10,28,17.80
2018,04,26,10,29,17.90
2018,04,26,10,30,18.00
2018,04,26,10,31,18.00
2018,04,26,10,32,18.10
2018,04,26,10,33,18.00
2018,04,26,10,34,18.00
2018,04,26,10,35,18.00
2018,04,26,10,36,18.00
2018,04,26,10,37,18.00
2018,04,26,10,38,18.00
2018,04,26,10,39,18.00
2018,04,26,10,40,18.10
2018,04,26,10,41,18.10
2018,04,26,10,42,18.10
2018,04,26,10,43,18.10
2018,04,26,10,44,18.20
2018,04,26,10,45,18.20
2018,04,26,10,46,18.30
2018,04,26,10,47,18.30
2018,04,26,10,48,18.40
2018,04,26,10,49,18.40
2018,04,26,10,50,18.50
2018,04,26,10,51,18.50
2018,04,26,10,52,18.50
2018,04,26,10,53,18.50
2018,04,26,10,54,18.40
2018,04,26,10,55,18.30
2018,04,26,10,56,18.20
2018,04,26,10,57,18.20
2018,04,26,10,58,18.10
2018,04,26,10,59,18.10
2018,04,26,11,00,18.10
2018,04,26,11,01,18.20
2018,04,26,11,02,18.30
2018,04,26,11,03,18.40
2018,04,26,11,04,18.60
2018,04,26,11,05,18.70
2018,04,26,11,06,18.70
2018,04,26,11,07,18.80
2018,04,26,11,08,18.80
2018,04,26,11,09,18.80
2018,04,26,11,10,18.80
2018,04,26,11,11,18.80
2018,04,26,11,12,18.80
2018,04,26,11,13,18.90
2018,04,26,11,14,18.90
2018,04,26,11,15,18.90
2018,04,26,11,16,19.00
2018,04,26,11,17,19.00
2018,04,26,11,18,19.00
2018,04,26,11,19,18.90
2018,04,26,11,20,18.80
2018,04,26,11,21,18.70
2018,04,26,11,22,18.70
2018,04,26,11,23,18.70
2018,04,26,11,24,18.70
2018,04,26,11,25,18.70
2018,04,26,11,26,18.70
2018,04,26,11,27,18.60
2018,04,26,11,28,18.60
2018,04,26,11,29,18.60
2018,04,26,11,30,18.50
2018,04,26,11,31,18.50
2018,04,26,11,32,18.40
2018,04,26,11,33,18.50
2018,04,26,11,34,18.50
2018,04,26,11,35,18.60
2018,04,26,11,36,18.60
2018,04,26,11,37,18.70
2018,04,26,11,38,18.80
2018,04,26,11,39,18.90
2018,04,26,11,40,18.90
2018,04,26,11,41,19.00
2018,04,26,11,42,19.00
2018,04,26,11,43,19.10
2018,04,26,11,44,19.10
2018,04,26,11,45,19.10
2018,04,26,11,46,19.20
2018,04,26,11,47,19.20
2018,04,26,11,48,19.20
2018,04,26,11,49,19.20
2018,04,26,11,50,19.20
2018,04,26,11,51,19.20
2018,04,26,11,52,19.20
2018,04,26,11,53,19.30
2018,04,26,11,54,19.30
2018,04,26,11,55,19.30
2018,04,26,11,56,19.40
2018,04,26,11,57,19.40
2018,04,26,11,58,19.50
2018,04,26,11,59,19.50
2018,04,26,12,00,19.40
2018,04,26,12,01,19.40
2018,04,26,12,02,19.40
2018,04,26,12,03,19.30
2018,04,26,12,04,19.40
2018,04,26,12,05,19.40
2018,04,26,12,06,19.50
2018,04,26,12,07,19.60
2018,04,26,12,08,19.60
2018,04,26,12,09,19.60
2018,04,26,12,10,19.70
2018,04,26,12,11,19.70
2018,04,26,12,12,19.70
2018,04,26,12,13,19.80
2018,04,26,12,14,19.80
2018,04,26,12,15,19.90
2018,04,26,12,16,19.90
2018,04,26,12,17,19.90
2018,04,26,12,18,19.90
2018,04,26,12,19,19.80
2018,04,26,12,20,19.90
2018,04,26,12,21,19.90
2018,04,26,12,22,19.90
2018,04,26,12,23,19.80
2018,04,26,12,24,19.80
2018,04,26,12,25,19.70
2018,04,26,12,26,19.70
2018,04,26,12,27,19.60
2018,04,26,12,28,19.50
2018,04,26,12,29,19.50
2018,04,26,12,30,19.50
2018,04,26,12,31,19.60
2018,04,26,12,32,19.70
2018,04,26,12,33,19.80
2018,04,26,12,34,19.90
2018,04,26,12,35,20.00
2018,04,26,12,36,20.10
2018,04,26,12,37,20.20
2018,04,26,12,38,20.20
2018,04,26,12,39,20.30
2018,04,26,12,40,20.40
2018,04,26,12,41,20.40
2018,04,26,12,42,20.50
2018,04,26,12,43,20.50
2018,04,26,12,44,20.50
2018,04,26,12,45,20.50
2018,04,26,12,46,20.50
2018,04,26,12,47,20.50
2018,04,26,12,48,20.60
2018,04,26,12,49,20.60
2018,04,26,12,50,20.60
2018,04,26,12,51,20.70
2018,04,26,12,52,20.80
2018,04,26,12,53,20.80
2018,04,26,12,54,20.80
2018,04,26,12,55,20.80
2018,04,26,12,56,20.90
2018,04,26,12,57,20.90
2018,04,26,12,58,20.90
2018,04,26,12,59,20.90
2018,04,26,13,00,20.90
2018,04,26,13,01,20.90
2018,04,26,13,02,20.90
2018,04,26,13,03,20.90
2018,04,26,13,04,20.90
2018,04,26,13,05,20.90
2018,04,26,13,06,20.90
2018,04,26,13,07,21.00
2018,04,26,13,08,21.10
2018,04,26,13,09,21.10
2018,04,26,13,10,21.10
2018,04,26,13,11,21.10
2018,04,26,13,12,21.10
2018,04,26,13,13,21.10
2018,04,26,13,14,21.00
2018,04,26,13,15,21.00
2018,04,26,13,16,20.90
2018,04,26,13,17,20.90
2018,04,26,13,18,20.90
2018,04,26,13,19,20.90
2018,04,26,13,20,20.90
2018,04,26,13,21,20.90
2018,04,26,13,22,21.00
2018,04,26,13,23,21.00
2018,04,26,13,24,21.00
2018,04,26,13,25,21.10
2018,04,26,13,26,21.10
2018,04,26,13,27,21.20
2018,04,26,13,28,21.20
2018,04,26,13,29,21.20
2018,04,26,13,30,21.30
2018,04,26,13,31,21.40
2018,04,26,13,32,21.50
2018,04,26,13,33,21.60
2018,04,26,13,34,21.70
2018,04,26,13,35,21.70
2018,04,26,13,36,21.70
2018,04,26,13,37,21.70
2018,04,26,13,38,21.70
2018,04,26,13,39,21.70
2018,04,26,13,40,21.70
2018,04,26,13,41,21.70
2018,04,26,13,42,21.70
2018,04,26,13,43,21.70
2018,04,26,13,44,21.80
2018,04,26,13,45,21.80
2018,04,26,13,46,21.70
2018,04,26,13,47,21.70
2018,04,26,13,48,21.70
2018,04,26,13,49,21.70
2018,04,26,13,50,21.70
2018,04,26,13,51,21.80
2018,04,26,13,52,21.90
2018,04,26,13,53,21.90
2018,04,26,13,54,21.90
2018,04,26,13,55,21.90
2018,04,26,13,56,21.90
2018,04,26,13,57,21.90
2018,04,26,13,58,21.90
2018,04,26,13,59,21.80
2018,04,26,14,00,21.80
2018,04,26,14,01,21.80
2018,04,26,14,02,21.80
2018,04,26,14,03,21.80
2018,04,26,14,04,21.80
2018,04,26,14,05,21.70
2018,04,26,14,06,21.70
2018,04,26,14,07,21.80
2018,04,26,14,08,21.80
2018,04,26,14,09,21.80
2018,04,26,14,10,21.80
2018,04,26,14,11,21.80
2018,04,26,14,12,21.90
2018,04,26,14,13,21.90
2018,04,26,14,14,21.80
2018,04,26,14,15,21.70
2018,04,26,14,16,21.70
2018,04,26,14,17,21.60
2018,04,26,14,18,21.60
2018,04,26,14,19,21.70
2018,04,26,14,20,21.80
2018,04,26,14,21,21.90
2018,04,26,14,22,21.90
2018,04,26,14,23,21.90
2018,04,26,14,24,22.00
2018,04,26,14,25,22.00
2018,04,26,14,26,22.10
2018,04,26,14,27,22.10
2018,04,26,14,28,22.00
2018,04,26,14,29,22.00
2018,04,26,14,30,22.10
2018,04,26,14,31,22.10
2018,04,26,14,32,22.20
2018,04,26,14,33,22.30
2018,04,26,14,34,22.30
2018,04,26,14,35,22.30
2018,04,26,14,36,22.30
2018,04,26,14,37,22.30
2018,04,26,14,38,22.30
2018,04,26,14,39,22.30
2018,04,26,14,40,22.30
2018,04,26,14,41,22.40
2018,04,26,14,42,22.40
2018,04,26,14,43,22.50
2018,04,26,14,44,22.60
2018,04,26,14,45,22.70
2018,04,26,14,46,22.70
2018,04,26,14,47,22.70
2018,04,26,14,48,22.70
2018,04,26,14,49,22.70
2018,04,26,14,50,22.70
2018,04,26,14,51,22.80
2018,04,26,14,52,22.90
2018,04,26,14,53,22.90
2018,04,26,14,54,22.90
2018,04,26,14,55,23.00
2018,04,26,14,56,23.00
2018,04,26,14,57,23.10
2018,04,26,14,58,23.10
2018,04,26,14,59,23.10
2018,04,26,15,00,23.10
2018,04,26,15,01,23.10
2018,04,26,15,02,23.10
2018,04,26,15,03,23.10
2018,04,26,15,04,23.10
2018,04,26,15,05,23.10
2018,04,26,15,06,23.10
2018,04,26,15,07,23.10
2018,04,26,15,08,23.20
2018,04,26,15,09,23.20
2018,04,26,15,10,23.30
2018,04,26,15,11,23.30
2018,04,26,15,12,23.20
2018,04,26,15,13,23.20
2018,04,26,15,14,23.30
2018,04,26,15,15,23.30
2018,04,26,15,16,23.50
2018,04,26,15,17,23.60
2018,04,26,15,18,23.60
2018,04,26,15,19,23.70
2018,04,26,15,20,23.70
2018,04,26,15,21,23.70
2018,04,26,15,22,23.70
2018,04,26,15,23,23.80
2018,04,26,15,24,23.80
2018,04,26,15,25,23.80
2018,04,26,15,26,23.90
2018,04,26,15,27,23.90
2018,04,26,15,28,23.90
2018,04,26,15,29,24.00
2018,04,26,15,30,24.00
2018,04,26,15,31,24.00
2018,04,26,15,32,24.10
2018,04,26,15,33,24.10
2018,04,26,15,34,24.20
2018,04,26,15,35,24.30
2018,04,26,15,36,24.30
2018,04,26,15,37,24.30
2018,04,26,15,38,24.20
2018,04,26,15,39,24.20
2018,04,26,15,40,24.10
2018,04,26,15,41,24.10
2018,04,26,15,42,24.00
2018,04,26,15,43,24.00
2018,04,26,15,44,24.10
2018,04,26,15,45,24.20
2018,04,26,15,46,24.30
2018,04,26,15,47,24.40
2018,04,26,15,48,24.40
2018,04,26,15,49,24.40
2018,04,26,15,50,24.40
2018,04,26,15,51,24.40
2018,04,26,15,52,24.40
2018,04,26,15,53,24.40
2018,04,26,15,54,24.30
2018,04,26,15,55,24.30
2018,04,26,15,56,24.20
2018,04,26,15,57,24.20
2018,04,26,15,58,24.10
2018,04,26,15,59,24.10
2018,04,26,16,00,24.20
2018,04,26,16,01,24.10
2018,04,26,16,02,24.10
2018,04,26,16,03,24.10
2018,04,26,16,04,24.00
2018,04,26,16,05,23.90
2018,04,26,16,06,23.90
2018,04,26,16,07,23.90
2018,04,26,16,08,23.90
2018,04,26,16,09,23.90
2018,04,26,16,10,24.00
2018,04,26,16,11,24.10
2018,04,26,16,12,24.20
2018,04,26,16,13,24.20
2018,04,26,16,14,24.30
2018,04,26,16,15,24.30
2018,04,26,16,16,24.30
2018,04,26,16,17,24.30
2018,04,26,16,18,24.30
2018,04,26,16,19,24.30
2018,04,26,16,20,24.30
2018,04,26,16,21,24.30
2018,04,26,16,22,24.20
2018,04,26,16,23,24.20
2018,04,26,16,24,24.20
2018,04,26,16,25,24.20
2018,04,26,16,26,24.10
2018,04,26,16,27,24.10
2018,04,26,16,28,24.20
2018,04,26,16,29,24.10
2018,04,26,16,30,24.10
2018,04,26,16,31,24.10
2018,04,26,16,32,24.10
2018,04,26,16,33,24.20
2018,04,26,16,34,24.20
2018,04,26,16,35,24.30
2018,04,26,16,36,24.30
2018,04,26,16,37,24.30
2018,04,26,16,38,24.30
2018,04,26,16,39,24.40
2018,04,26,16,40,24.40
2018,04,26,16,41,24.50
2018,04,26,16,42,24.40
2018,04,26,16,43,24.40
2018,04,26,16,44,24.50
2018,04,26,16,45,24.50
2018,04,26,16,46,24.50
2018,04,26,16,47,24.50
2018,04,26,16,48,24.50
2018,04,26,16,49,24.50
2018,04,26,16,50,24.50
2018,04,26,16,51,24.40
2018,04,26,16,52,24.50
2018,04,26,16,53,24.50
2018,04,26,16,54,24.50
2018,04,26,16,55,24.50
2018,04,26,16,56,24.50
2018,04,26,16,57,24.60
2018,04,26,16,58,24.60
2018,04,26,16,59,24.70
2018,04,26,17,00,24.70
2018,04,26,17,01,24.80
2018,04,26,17,02,24.90
2018,04,26,17,03,25.00
2018,04,26,17,04,25.00
2018,04,26,17,05,25.10
2018,04,26,17,06,25.10
2018,04,26,17,07,25.10
2018,04,26,17,08,25.10
2018,04,26,17,09,25.10
2018,04,26,17,10,25.10
2018,04,26,17,11,25.20
2018,04,26,17,12,25.20
2018,04,26,17,13,25.30
2018,04,26,17,14,25.30
2018,04,26,17,15,25.30
2018,04,26,17,16,25.30
2018,04,26,17,17,25.30
2018,04,26,17,18,25.30
2018,04,26,17,19,25.30
2018,04,26,17,20,25.30
2018,04,26,17,21,25.30
2018,04,26,17,22,25.30
2018,04,26,17,23,25.40
2018,04,26,17,24,25.40
2018,04,26,17,25,25.50
2018,04,26,17,26,25.50
2018,04,26,17,27,25.60
2018,04,26,17,28,25.60
2018,04,26,17,29,25.60
2018,04,26,17,30,25.70
2018,04,26,17,31,25.70
2018,04,26,17,32,25.70
2018,04,26,17,33,25.70
2018,04,26,17,34,25.70
2018,04,26,17,35,25.70
2018,04,26,17,36,25.70
2018,04,26,17,37,25.70
2018,04,26,17,38,25.70
2018,04,26,17,39,25.70
2018,04,26,17,40,25.70
2018,04,26,17,41,25.70